This is the latest recevied weather packets stored in our database for station/object wb2ifs-13. If no packets are shown the sender has not sent any weather packets the latest 10 day(s).
| Time | Temp. | Humidity | Pressure | Rain* | Wind** | Luminosity | Snow |
|---|---|---|---|---|---|---|---|
| 1777621498 | 5.56° C | 83% | 1014.9 hPa | 0 mm | - | - | - |
| 1777620598 | 6.11° C | 82% | 1015 hPa | 0 mm | - | - | - |
| 1777619698 | 6.11° C | 82% | 1014.9 hPa | 0 mm | - | - | - |
| 1777618798 | 6.11° C | 82% | 1014.8 hPa | 0 mm | - | - | - |
| 1777617898 | 6.11° C | 83% | 1014.8 hPa | 0 mm | - | - | - |
| 1777616999 | 6.11° C | 83% | 1014.8 hPa | 0 mm | - | - | - |
| 1777616098 | 6.11° C | 83% | 1014.9 hPa | 0 mm | - | - | - |
| 1777615200 | 6.67° C | 82% | 1014.8 hPa | 0 mm | - | - | - |
| 1777614300 | 6.67° C | 81% | 1014.8 hPa | 0 mm | - | - | - |
| 1777613400 | 6.67° C | 79% | 1014.9 hPa | 0 mm | - | - | - |
| 1777612499 | 6.67° C | 80% | 1014.9 hPa | 0 mm | - | - | - |
| 1777611600 | 7.22° C | 79% | 1015 hPa | 0 mm | - | - | - |
| 1777610700 | 7.22° C | 78% | 1015.2 hPa | 0 mm | - | - | - |
| 1777609800 | 7.22° C | 77% | 1014.9 hPa | 0 mm | - | - | - |
| 1777608900 | 7.78° C | 75% | 1014.8 hPa | 0 mm | - | - | - |
| 1777608006 | 8.33° C | 73% | 1014.9 hPa | 0 mm | - | - | - |
| 1777607099 | 8.33° C | 71% | 1014.9 hPa | 0 mm | - | - | - |
| 1777606199 | 8.89° C | 71% | 1014.9 hPa | 0 mm | - | - | - |
| 1777605299 | 9.44° C | 69% | 1014.7 hPa | 0 mm | - | - | - |
| 1777604399 | 10° C | 66% | 1014.9 hPa | 0 mm | - | - | - |
| 1777603499 | 10.56° C | 64% | 1014.7 hPa | 0 mm | - | - | - |
| 1777602599 | 11.11° C | 64% | 1014.6 hPa | 0 mm | - | - | - |
| 1777601700 | 11.67° C | 62% | 1014.5 hPa | 0 mm | - | - | - |
| 1777600801 | 11.67° C | 61% | 1014.5 hPa | 0 mm | - | - | - |
| 1777599899 | 12.22° C | 60% | 1014.5 hPa | 0 mm | - | - | - |
* Rain latest hour (hover to see other rain measurements)
** Current wind speed in m/s (hover to see current wind gust speed)